CAPE
0 0 0 0 0 0 0 0 0 0 0 0 0 0 0 0 0 0 0 0 0 0 0 0 0 0 0 0 0 0 0 0 0 0 0 0 175 172 303 342 915 684 946 1363 1489 1898 1732 1580 1916 2447 2641 2606 2625 2686 2696 2801 2858 2871 2638 2546 2360 1934 1858 1804 1539 1289 1178 1081 872 748 660 600 574 618 644 800 740 468 484 508 498 471 550 733 957 986 1077 780 518 456 488 1748 907 808 760 1030 1394
0 0 0 0 0 0 0 0 0 0 0 0 0 0 0 0 0 0 0 0 0 0 0 0 0 0 0 0 0 0 0 0 0 0 0 9 4 74 318 224 750 754 749 1001 1409 1738 1972 2139 1623 2279 2582 2640 2676 2649 2684 2763 2802 2729 2655 2531 2336 1992 1748 1473 1296 1202 1125 1024 844 705 597 552 572 722 627 775 984 675 453 427 527 626 649 676 908 1104 1133 721 565 572 577 1925 953 803 953 1193 1462
0 0 0 0 0 0 0 0 0 0 0 0 0 0 0 0 0 0 0 0 0 0 0 0 0 0 0 0 0 0 0 0 0 0 0 94 0 0 704 402 523 790 679 841 1275 1547 1919 2162 1742 1992 2491 2609 2693 2675 2684 2738 2681 2641 2454 2549 2408 2044 1709 1487 1316 1230 1173 1032 811 695 589 536 572 642 729 791 1000 978 910 842 775 843 984 822 852 1089 1138 819 634 865 628 1038 1627 1333 1354 1388 1063
0 0 0 0 0 0 0 0 0 0 0 0 0 0 0 0 0 0 0 0 0 0 0 0 0 0 0 0 0 0 0 0 0 0 0 0 0 704 558 522 496 613 542 780 1199 1528 1776 1680 1686 1854 2313 2435 2666 2688 2716 2593 2480 2535 2208 2494 2508 2329 2066 1580 1402 1310 1197 1040 801 727 632 523 445 529 752 780 946 1114 1097 984 948 1075 1262 1238 829 798 1149 963 773 900 710 1538 1229 882 1445 1124 831
0 0 0 0 0 0 0 0 0 0 0 0 0 0 0 0 0 0 0 0 0 0 0 0 0 0 0 0 0 0 0 0 0 0 0 0 66 94 243 593 486 426 448 552 882 1285 1524 1459 1535 1694 2021 2244 2444 2669 2678 2575 2489 2451 2373 2366 2455 2271 2118 1736 1470 1309 1094 1027 832 755 682 548 504 982 1434 1299 1340 1144 844 932 1200 1270 1249 1250 1010 730 917 1017 1003 812 1538 1177 1164 789 921 1081 738
0 0 0 0 0 0 0 0 0 0 0 0 0 0 0 0 0 0 0 0 0 0 0 0 0 0 0 0 0 0 0 0 0 0 0 35 76 0 116 241 298 369 434 479 699 970 1324 1220 1369 1595 1834 2173 2385 2444 2631 2576 2572 2517 2394 2534 2340 2323 2063 2069 1501 1243 1056 994 887 821 773 763 1786 1544 1525 1368 1279 1376 1388 1009 1362 1537 1694 1618 1121 922 839 1044 979 901 1506 1745 1100 1253 714 789 522
0 0 0 0 0 0 0 0 0 0 0 0 0 0 0 0 0 0 0 0 0 0 0 0 0 0 0 0 0 0 0 0 0 109 0 273 0 47 48 96 217 420 488 442 543 801 1118 1030 1191 1482 1640 1917 2338 2374 2359 2229 2370 2494 2396 2256 2601 2488 2415 2127 1871 1335 975 864 867 938 1464 1922 1691 1455 1340 1326 1156 1169 1358 1266 1292 1328 1423 1557 1585 1160 887 853 1008 1260 1251 1126 867 898 824 749 544
0 0 0 0 0 0 0 0 0 0 0 0 0 0 0 0 0 0 0 0 0 0 0 0 0 0 0 0 0 0 0 0 0 86 0 0 0 0 37 78 174 306 429 387 463 634 596 740 1145 1406 1502 1739 2065 2222 2274 2261 2271 2330 2371 2344 2265 2502 2637 2241 2096 1658 1255 2108 2082 2055 2111 1946 1645 1441 1252 1114 1056 1074 1262 1511 1476 1508 1547 1678 1771 1735 1212 944 948 1490 1438 1229 990 938 906 727 574
0 0 0 0 0 0 0 0 0 0 0 0 0 0 0 0 0 0 0 0 0 0 0 0 0 0 0 0 0 0 0 0 0 0 0 0 0 0 0 85 96 313 324 219 302 450 537 633 1152 1427 1457 1616 1725 2081 2256 2299 2212 2142 2099 2131 2142 2555 2447 2188 2156 1848 2595 2465 2310 2141 1850 1504 1562 1342 1011 873 927 1144 1282 1402 1363 1421 1638 1669 1646 1713 1341 1217 989 1320 882 784 824 770 695 489 582
0 0 0 0 0 0 0 0 0 0 0 0 0 0 0 0 0 0 0 0 0 0 0 0 0 0 0 0 0 0 0 0 0 0 0 0 0 0 0 78 157 264 351 196 182 267 450 618 827 1086 1454 1590 1655 1823 2044 2185 2198 2034 1896 1926 1964 2157 2180 2032 2100 1776 2350 2301 2221 2036 1824 1624 1438 1186 918 874 1032 1257 1319 1384 1452 1397 1495 1559 1490 1393 1216 1016 1597 1079 480 395 542 817 534 551 793
0 0 0 0 0 0 0 0 0 0 0 0 0 0 0 0 0 0 0 0 0 0 0 0 0 0 0 0 0 0 0 0 0 0 3 0 0 0 0 42 39 78 112 224 154 199 297 570 733 720 807 1312 1569 1661 1684 1930 2021 1822 1798 1790 1917 2212 1968 2017 1875 1615 1895 2159 2168 2027 1783 1684 1392 1073 923 976 1105 1306 1276 1326 1516 1392 1422 1578 1418 1065 1207 1399 1076 794 688 444 629 609 750 818 651
0 0 0 0 0 0 0 0 0 0 0 0 0 0 0 0 0 0 0 0 0 0 0 0 0 0 0 0 0 0 0 0 0 0 0 0 0 0 0 17 19 10 26 141 136 115 238 359 529 608 574 703 1088 1384 1461 1702 1856 1810 1713 1640 1746 1914 1620 1624 1928 1794 1921 2009 2055 1830 1656 1579 1340 1098 1086 1092 1140 1200 1293 1352 1412 1560 1390 1462 1420 1131 1432 777 655 640 453 682 629 548 611 724 676
0 0 0 0 0 0 0 0 0 0 0 0 0 0 0 0 0 0 0 0 0 0 0 0 0 0 0 0 0 0 0 0 0 0 0 0 0 0 0 0 6 13 5 0 30 116 200 244 358 413 454 521 667 874 1045 1233 1502 1557 1535 1559 1696 1601 1472 1853 1716 1916 1822 1849 1924 1776 1698 1634 1564 1376 1311 1245 1222 1255 1372 1407 1451 1564 1568 1530 1712 1724 1108 740 527 339 535 492 780 579 612 689 727
0 0 0 0 0 0 0 0 0 0 0 0 0 0 0 0 0 0 0 0 0 0 0 0 0 0 0 0 0 0 0 0 0 0 0 0 0 0 0 0 0 7 30 50 27 78 139 167 240 400 485 541 663 761 778 938 1222 1377 1224 1350 1407 1227 1110 1708 1915 1900 1745 1659 1627 1445 1365 1200 1127 1151 1328 1369 1314 1387 1367 1414 1422 1325 1370 1488 1126 1126 1034 605 396 488 484 525 481 415 660 696 612
0 0 0 0 0 0 0 0 0 0 0 0 0 0 0 0 0 0 0 0 0 0 0 0 0 0 0 0 0 0 0 0 0 0 0 0 0 0 0 0 0 0 9 59 112 120 102 123 175 320 451 577 699 794 960 1006 895 1128 1135 1113 1260 1177 1196 1302 1605 1753 1579 1441 1364 1116 1029 944 964 1042 1085 1185 1265 1179 1018 810 877 1005 1040 1122 823 918 779 616 329 702 541 537 269 236 603 457 275
0 0 0 0 0 0 0 0 0 0 0 0 0 0 0 0 0 0 0 0 0 0 0 0 0 0 0 0 0 0 0 0 0 0 0 0 0 0 0 0 0 0 5 74 108 158 210 168 162 224 378 490 608 711 916 1144 1083 982 1116 1080 997 990 947 1318 1450 1565 1420 1214 1236 1080 972 1000 842 1096 949 1262 1066 1019 922 889 858 883 935 1034 845 836 737 519 414 407 394 320 322 196 142 144 50
0 0 0 0 0 0 0 0 0 0 0 0 0 0 0 0 0 0 0 0 0 0 0 0 0 0 0 0 0 0 0 0 0 0 0 0 0 0 0 0 0 0 0 0 110 127 196 291 232 237 368 435 551 712 859 997 988 1053 1112 1015 941 865 775 866 1146 1362 1297 1047 1035 934 887 1167 1191 1073 1381 1052 1107 1220 768 678 754 846 653 934 798 915 734 479 276 264 219 130 103 67 0 0 14
0 0 0 0 0 0 0 0 0 0 0 0 0 0 0 0 0 0 0 0 0 0 0 0 0 0 0 0 0 0 0 0 0 0 0 0 0 0 0 0 0 0 0 0 0 37 136 207 304 368 442 462 523 657 749 894 1047 907 1188 1186 1021 831 725 776 1097 1370 799 840 753 1051 1157 878 981 780 588 756 875 956 771 700 724 622 532 693 826 887 809 498 352 285 184 101 106 18 0 4 0
0 0 0 0 0 0 0 0 0 0 0 0 0 0 0 0 0 0 0 0 0 0 0 0 0 0 0 0 0 0 0 0 0 0 0 0 0 0 0 0 0 0 0 0 1 17 69 132 242 238 405 538 570 575 661 752 840 876 1104 1148 1087 866 884 851 958 1178 1214 1170 788 1114 794 926 963 544 581 897 897 730 721 587 490 459 499 536 598 705 696 508 340 306 199 83 0 0 38 50 0
0 0 0 0 0 0 0 0 0 0 0 0 0 0 0 0 0 0 0 0 0 0 0 0 0 0 0 0 0 0 0 0 0 0 0 0 0 0 0 0 0 0 0 0 0 0 39 72 161 289 325 446 519 550 601 635 714 758 807 984 959 1039 974 1022 868 954 1169 789 527 774 564 801 1204 673 931 982 776 654 497 365 493 472 481 592 382 599 830 528 352 225 97 0 0 4 68 7 14
0 0 0 0 0 0 0 0 0 0 0 0 0 0 0 0 0 0 0 0 0 0 0 0 0 0 0 0 0 0 0 0 0 0 0 0 0 0 0 0 0 0 0 0 0 0 0 1 70 157 233 305 424 383 545 678 664 666 758 880 938 898 1023 1180 955 1147 1046 1035 976 564 569 972 1177 697 1002 884 987 700 648 627 460 247 298 567 528 581 678 451 319 219 113 5 15 51 36 0 10
0 0 0 0 0 0 0 0 0 0 0 0 0 0 0 0 0 0 0 0 0 0 0 0 0 0 0 0 0 0 0 0 0 0 0 0 0 0 0 0 0 0 0 0 0 0 0 0 0 11 112 144 197 243 371 392 609 618 689 848 891 787 880 946 868 826 944 994 822 588 708 1074 1049 1070 1220 1200 1119 693 631 696 738 387 311 483 360 304 274 195 173 52 42 12 43 63 38 22 0
0 0 0 0 0 0 0 0 0 0 0 0 0 0 0 0 0 0 0 0 0 0 0 0 0 0 0 0 0 0 0 0 0 0 0 0 0 0 0 0 0 0 0 0 0 0 0 0 0 0 30 69 84 144 270 392 477 624 646 707 825 804 709 792 851 863 884 817 740 694 607 741 912 1136 1160 1022 988 735 703 732 756 453 256 365 477 308 328 228 222 105 58 33 75 57 23 43 48
0 0 0 0 0 0 0 0 0 0 0 0 0 0 0 0 0 0 0 0 0 0 0 0 0 0 0 0 0 0 0 0 0 0 0 0 0 0 0 0 0 0 0 0 0 0 0 0 0 0 0 1 22 76 152 278 378 501 614 633 780 620 545 611 719 749 772 803 735 379 430 584 786 1120 1024 919 911 810 665 633 588 914 611 420 380 483 329 269 358 182 203 64 64 50 0 19 18
0 0 0 0 0 0 0 0 0 0 0 0 0 0 0 0 0 0 0 0 0 0 0 0 0 0 0 0 0 0 0 0 0 0 0 0 0 0 0 0 0 0 0 0 0 0 0 0 0 0 0 1 12 27 116 182 281 510 602 739 669 569 513 556 664 684 726 635 602 528 556 551 688 907 872 832 782 856 584 438 407 856 672 319 357 496 191 288 457 245 168 80 62 28 1 2 4
0 0 0 0 0 0 0 0 0 0 0 0 0 0 0 0 0 0 0 0 0 0 0 0 0 0 0 0 0 0 0 0 0 0 0 0 0 0 0 0 0 0 0 0 0 0 0 0 0 0 0 0 8 54 83 150 203 389 544 618 616 490 461 554 688 613 599 677 558 689 612 496 652 789 832 885 794 862 621 460 318 421 510 321 267 257 158 221 240 178 216 215 129 82 26 5 0
0 0 0 0 0 0 0 0 0 0 0 0 0 0 0 0 0 0 0 0 0 0 0 0 0 0 0 0 0 0 0 0 0 0 0 0 0 0 0 0 0 0 0 0 0 0 0 0 0 0 0 0 12 21 33 61 117 310 567 601 570 524 479 453 593 625 437 497 510 677 703 567 599 787 782 872 815 732 640 385 284 335 427 166 199 284 252 185 207 162 243 225 170 96 37 6 3
0 0 0 0 0 0 0 0 0 0 0 0 0 0 0 0 0 0 0 0 0 0 0 0 0 0 0 0 0 0 0 0 0 0 0 0 0 0 0 0 0 0 0 0 0 0 0 0 0 0 0 0 0 24 28 111 112 178 496 567 526 488 444 529 579 583 550 430 372 625 757 657 566 820 942 827 918 943 676 415 350 313 148 69 272 262 298 262 258 172 275 232 222 120 7 5 4
0 0 0 0 0 0 0 0 0 0 0 0 0 0 0 0 0 0 0 0 0 0 0 0 0 0 0 0 0 0 0 0 0 0 0 0 0 0 0 0 0 0 0 0 0 0 0 0 0 0 0 0 0 3 32 43 162 141 248 605 543 491 463 422 530 426 464 475 329 381 679 711 655 654 940 855 836 942 618 581 520 167 62 99 257 252 239 248 210 257 242 308 219 71 19 17 6
0 0 0 0 0 0 0 0 0 0 0 0 0 0 0 0 0 0 0 0 0 0 0 0 0 0 0 0 0 0 0 0 0 0 0 0 0 0 0 0 0 0 0 0 0 0 0 0 0 0 0 0 0 0 2 33 59 73 78 580 481 540 482 471 405 480 575 518 362 312 488 656 628 550 779 796 820 790 537 525 429 222 224 43 134 92 250 278 232 187 214 153 135 49 24 0 0
0 0 0 0 0 0 0 0 0 0 0 0 0 0 0 0 0 0 0 0 0 0 0 0 0 0 0 0 0 0 0 0 0 0 0 0 0 0 0 0 0 0 0 0 0 0 0 0 0 0 0 0 0 0 0 20 58 72 147 336 385 605 501 454 446 477 501 510 472 309 282 478 592 544 704 731 663 779 530 216 221 205 57 30 41 95 137 135 171 173 213 94 101 38 26 0 0
0 0 0 0 0 0 0 0 0 0 0 0 0 0 0 0 0 0 0 0 0 0 0 0 0 0 0 0 0 0 0 0 0 0 0 0 0 0 0 0 0 0 0 0 0 0 0 0 0 0 0 0 0 0 0 0 13 89 139 219 134 527 386 328 513 508 434 600 539 408 373 354 474 636 636 634 597 580 483 79 77 42 204 54 101 65 11 92 226 178 171 119 44 20 12 0 0
0 0 0 0 0 0 0 0 0 0 0 0 0 0 0 0 0 0 0 0 0 0 0 0 0 0 0 0 0 0 0 0 0 0 0 0 0 0 0 0 0 0 0 0 0 0 0 0 0 0 0 0 0 3 2 4 4 37 47 55 107 188 282 696 608 526 308 581 591 544 527 445 451 600 409 551 597 449 276 113 58 2 84 44 0 23 60 48 62 161 4 65 2 0 9 0 0
0 0 0 0 0 0 0 0 0 0 0 0 0 0 0 0 0 0 0 0 0 0 0 0 0 0 0 0 0 0 0 0 0 0 0 0 0 0 0 0 0 0 0 0 0 0 0 0 0 0 0 0 0 0 36 34 17 28 89 177 108 189 547 597 453 702 372 564 277 252 220 249 473 541 308 70 330 352 320 273 14 14 128 0 0 6 0 0 0 1 1 21 31 14 3 16 21
0 0 0 0 0 0 0 0 0 0 0 0 0 0 0 0 0 0 0 0 0 0 0 0 0 0 0 0 0 0 0 0 0 0 0 0 0 0 0 0 0 0 0 0 0 0 0 0 0 0 0 0 0 0 3 149 315 117 265 384 297 222 165 602 694 546 589 626 444 193 288 218 168 329 214 237 434 283 322 279 62 0 46 28 0 0 1 0 3 0 8 11 15 33 1 18 5
0 0 0 0 0 0 0 0 0 0 0 0 0 0 0 0 0 0 0 0 0 0 0 0 0 0 0 0 0 0 0 0 0 0 0 0 0 0 0 0 0 0 0 0 0 0 0 0 0 0 0 0 0 0 0 1 64 361 294 365 616 423 437 265 100 139 200 538 347 254 210 299 236 218 308 124 257 70 308 158 106 75 0 0 5 3 0 0 0 6 13 24 17 26 52 50 41
0 0 0 0 0 0 0 0 0 0 0 0 0 0 0 0 0 0 0 0 0 0 0 0 0 0 0 0 0 0 0 0 0 0 0 0 0 0 0 0 0 0 0 0 0 0 2 1 1 0 0 0 0 0 0 0 2 48 175 113 156 105 401 450 714 384 156 238 254 257 309 231 81 168 379 245 252 104 244 102 69 16 0 0 1 14 14 0 0 0 42 48 16 30 48 80 100
0 0 0 0 0 0 0 0 0 0 0 0 0 0 0 0 0 0 0 0 0 0 0 0 0 0 0 0 0 0 0 0 0 0 0 0 0 0 0 0 0 0 0 0 0 0 0 2 13 16 1 2 2 0 0 0 0 1 60 252 323 315 396 42 138 570 424 358 498 354 149 148 262 193 342 380 210 194 158 61 3 0 0 0 4 10 0 0 18 0 8 63 0 4 1 0 61
0 0 0 0 0 0 0 0 0 0 0 0 0 0 0 0 0 0 0 0 0 0 0 0 0 0 0 0 0 0 0 0 0 0 0 0 0 0 0 0 0 0 0 0 0 0 0 0 0 0 0 0 3 2 0 0 0 0 0 29 465 295 322 339 287 127 464 598 272 310 398 151 127 88 97 108 305 156 127 94 20 0 0 0 4 22 11 4 0 0 3 0 12 29 0 0 9
0 0 0 0 0 0 0 0 0 0 0 0 0 0 0 0 0 0 0 0 0 0 0 0 0 0 0 0 0 0 0 0 0 0 0 0 0 0 0 0 0 0 0 0 0 0 0 0 0 0 0 0 0 0 0 0 0 0 0 3 178 689 510 393 471 379 284 489 513 465 534 421 221 132 40 240 55 242 124 18 29 9 1 0 26 0 0 9 12 17 0 1 1 22 46 2 0
0 0 0 0 0 0 0 0 0 0 0 0 0 0 0 0 0 0 0 0 0 0 0 0 0 0 0 0 0 0 0 0 0 0 0 0 0 0 0 0 0 0 0 0 0 0 0 0 0 0 0 0 0 0 0 0 0 0 0 0 3 107 386 322 300 418 187 255 431 473 437 424 316 294 139 46 14 254 248 91 6 0 11 1 1 27 0 0 0 10 0 4 7 0 1 8 14
0 0 0 0 0 0 0 0 0 0 0 0 0 0 0 0 0 0 0 0 0 0 0 0 0 0 0 0 0 0 0 0 0 0 0 0 0 0 0 0 0 0 0 0 0 0 0 0 0 0 0 0 0 0 0 0 0 0 0 6 12 4 30 98 119 101 97 180 70 14 265 240 276 208 193 33 77 70 209 165 42 7 25 8 0 2 0 12 2 20 11 2 4 0 0 0 13
0 0 0 0 0 0 0 0 0 0 0 0 0 0 0 0 0 0 0 0 0 0 0 0 0 0 0 0 0 0 0 0 0 0 0 0 0 0 0 0 0 0 0 0 0 0 0 0 0 0 0 0 0 0 0 0 0 0 0 6 12 12 19 38 124 196 245 199 187 121 167 113 205 279 185 219 38 134 126 154 38 30 8 5 0 0 2 0 9 18 22 8 4 0 1 1 0
0 0 0 0 0 0 0 0 0 0 0 0 0 0 0 0 0 0 0 0 0 0 0 0 0 0 0 0 0 0 0 0 0 0 0 0 0 0 0 0 0 0 0 0 0 0 0 0 0 0 0 0 0 0 0 0 0 0 0 3 12 8 16 22 42 94 163 188 196 290 187 120 62 74 171 196 179 2 12 96 83 35 23 26 43 3 0 3 6 25 18 9 1 1 0 2 1
0 0 0 0 0 0 0 0 0 0 0 0 0 0 0 0 0 0 0 0 0 0 0 0 0 0 0 0 0 0 0 0 0 0 0 0 0 0 0 0 0 0 0 0 0 0 0 0 0 6 0 0 0 0 0 0 0 0 7 0 4 13 11 9 24 73 60 19 97 146 132 159 77 58 71 131 170 60 46 59 90 40 17 14 25 0 1 7 1 3 11 10 2 4 9 1 1
0 0 0 0 0 0 0 0 0 0 0 0 0 0 0 0 0 0 0 0 0 0 0 0 0 0 0 0 0 0 0 0 0 0 0 0 0 0 0 0 0 0 0 0 0 0 0 0 0 0 0 0 0 0 0 0 0 0 4 15 2 9 19 2 5 25 91 98 89 101 135 125 123 33 34 33 51 24 67 0 5 1 7 9 12 0 0 6 7 12 3 1 2 1 14 6 10
0 0 0 0 0 0 0 0 0 0 0 0 0 0 0 0 0 0 0 0 0 0 0 0 0 0 0 0 0 0 0 0 0 0 0 0 0 0 0 0 0 0 0 0 0 0 0 0 0 0 0 0 0 0 0 0 0 0 0 2 7 3 12 26 4 4 8 39 44 102 198 232 178 27 70 112 100 72 16 0 0 5 1 2 0 0 0 4 0 1 0 4 2 7 7 1 10
0 0 0 0 0 0 0 0 0 0 0 0 0 0 0 0 0 0 0 0 0 0 0 0 0 0 0 0 0 0 0 0 0 0 0 0 0 0 0 0 0 0 0 0 0 0 0 0 0 0 0 0 0 0 0 0 0 0 0 0 0 3 8 14 30 9 10 11 14 13 84 234 204 145 58 54 54 1 30 6 1 2 14 2 0 0 0 0 5 12 8 4 6 25 18 10 15
0 0 0 0 0 0 0 0 0 0 0 0 0 0 0 0 0 0 0 0 0 0 0 0 0 0 0 0 0 0 0 0 0 0 0 0 0 0 0 0 0 0 0 0 0 0 0 0 0 0 0 0 0 0 0 0 0 0 0 0 0 0 1 10 20 19 2 8 13 9 6 79 178 82 21 0 0 37 0 68 2 7 18 0 0 30 0 7 3 0 1 9 8 18 26 6 5
0 0 0 0 0 0 0 0 0 0 0 0 0 0 0 0 0 0 0 0 0 0 0 0 0 0 0 0 0 0 0 0 0 0 0 0 0 0 0 0 0 0 0 0 0 0 0 0 0 0 0 0 0 0 0 1 0 0 0 0 0 0 0 1 9 19 17 1 4 8 8 7 38 131 59 20 0 15 17 1 0 0 7 0 1 4 0 0 2 1 0 5 14 9 14 19 8
0 0 0 0 0 0 0 0 0 0 0 0 0 0 0 0 0 0 0 0 0 0 0 0 0 0 0 0 0 0 0 0 0 0 0 0 0 0 0 0 0 0 0 0 0 0 0 0 0 0 0 0 0 0 0 1 9 2 0 0 0 0 0 0 1 5 14 7 1 1 0 6 10 33 44 41 2 0 3 0 5 0 0 0 10 50 51 0 0 10 2 2 3 11 18 14 11
0 0 0 0 0 0 0 0 0 0 0 0 0 0 0 0 0 0 0 0 0 0 0 0 0 0 0 0 0 0 0 0 0 0 0 0 0 0 0 0 0 0 0 0 0 0 0 0 0 0 0 0 0 0 0 1 11 10 1 0 0 0 0 0 0 0 4 2 0 1 2 2 7 7 65 61 18 0 2 12 50 1 0 2 72 69 75 34 6 34 13 1 0 3 9 8 9
0 0 0 0 0 0 0 0 0 0 0 0 0 0 0 0 0 0 0 0 0 0 0 0 0 0 0 0 0 0 0 0 0 0 0 0 0 0 0 0 0 0 0 0 0 0 0 0 0 0 0 0 0 0 0 0 12 23 5 0 0 0 0 0 0 1 0 1 1 0 1 0 2 4 8 78 18 16 0 0 0 0 0 28 102 67 48 54 6 42 15 30 21 18 10 14 14
0 0 0 0 0 0 0 0 0 0 0 0 0 0 0 0 0 0 0 0 0 0 0 0 0 0 0 0 0 0 0 0 0 0 0 0 0 0 0 0 0 3 2 0 0 0 0 0 0 0 0 0 0 0 0 1 17 37 20 3 0 0 0 0 0 0 0 0 0 0 0 0 0 2 2 58 76 62 3 0 0 1 0 9 24 94 16 14 6 33 59 67 33 19 2 14 17
0 0 0 0 0 0 0 0 0 0 0 0 0 0 0 0 0 0 0 0 0 0 0 0 0 0 0 0 0 0 0 0 0 0 0 0 0 0 0 0 0 0 0 0 4 5 7 0 7 0 0 0 0 0 0 1 21 46 45 14 4 0 0 0 0 0 0 0 0 0 0 0 1 2 1 5 45 41 6 0 0 2 0 6 10 73 18 18 42 15 0 0 16 0 1 12 14
0 0 0 0 0 0 0 0 0 0 0 0 0 0 0 0 0 0 0 0 0 0 0 0 0 0 0 0 0 0 0 0 0 0 0 0 0 0 0 0 0 0 0 0 6 16 25 18 0 0 2 1 2 2 2 5 6 36 57 28 9 2 0 0 0 0 0 0 0 0 0 0 0 0 1 5 48 62 35 0 0 0 0 0 4 22 10 3 0 0 0 0 0 0 1 8 10
0 0 0 0 0 0 0 0 0 0 0 0 0 0 0 0 0 0 0 0 0 0 0 0 0 0 0 0 0 0 0 0 0 0 0 0 0 1 0 0 0 0 0 0 1 0 0 0 0 0 0 0 4 2 2 1 7 7 32 47 34 17 6 2 0 0 0 0 0 0 0 0 0 0 1 3 12 17 19 7 0 0 0 0 0 0 3 2 0 0 0 10 0 1 3 0 0
0 0 0 0 0 0 0 0 0 0 0 0 0 0 0 0 0 0 0 0 0 0 0 0 0 0 0 0 0 0 0 0 0 0 0 0 0 3 0 0 0 0 0 0 0 0 0 0 0 0 0 0 0 0 1 2 3 9 7 8 45 40 19 8 3 0 0 0 0 0 0 0 0 0 1 0 0 50 24 16 3 0 0 0 0 0 0 20 0 0 0 66 88 1 4 5 1
Wind_Speed
nan nan nan nan nan nan nan nan nan nan nan nan nan nan nan nan nan nan nan nan nan nan nan nan nan nan nan nan nan nan nan nan nan nan nan nan 27 27 26 26 28 24 24 26 26 26 27 25 26 26 26 27 27 28 28 28 28 29 30 27 24 21 21 21 20 20 23 26 30 34 38 40 40 40 40 35 31 32 34 34 34 35 33 32 31 30 29 27 26 25 25 34 35 30 28 31 32
nan nan nan nan nan nan nan nan nan nan nan nan nan nan nan nan nan nan nan nan nan nan nan nan nan nan nan nan nan nan nan nan nan nan nan nan nan nan 31 31 32 30 27 26 27 27 28 28 26 26 26 27 28 28 28 28 28 29 29 29 27 25 22 21 21 20 21 23 27 30 34 38 40 41 41 40 36 34 33 33 34 34 33 33 32 31 29 27 26 25 25 32 34 32 29 31 35
nan nan nan nan nan nan nan nan nan nan nan nan nan nan nan nan nan nan nan nan nan nan nan nan nan nan nan nan nan nan nan nan nan nan nan nan nan nan 31 32 32 29 28 27 28 30 29 29 28 27 25 25 28 29 28 28 29 29 29 27 28 28 26 22 20 20 20 21 23 27 30 33 37 40 40 42 41 37 33 32 32 33 33 33 32 30 29 27 25 25 24 29 33 32 31 35 37
nan nan nan nan nan nan nan nan nan nan nan nan nan nan nan nan nan nan nan nan nan nan nan nan nan nan nan nan nan nan nan nan nan nan nan nan nan 15 17 28 29 29 27 26 29 30 31 32 30 30 26 27 26 29 29 29 29 28 30 28 27 28 28 25 21 19 18 18 20 22 26 28 31 36 39 42 41 39 37 34 33 33 33 32 31 30 29 26 25 24 24 32 33 32 32 36 38
nan nan nan nan nan nan nan nan nan nan nan nan nan nan nan nan nan nan nan nan nan nan nan nan nan nan nan nan nan nan nan nan nan nan nan nan nan nan 14 19 26 28 28 28 28 30 31 34 33 32 29 28 27 27 30 30 30 28 30 30 29 29 28 27 24 20 17 16 17 19 22 24 26 33 41 45 47 42 40 39 35 33 33 32 31 30 29 27 24 24 27 35 37 31 35 36 39
nan nan nan nan nan nan nan nan nan nan nan nan nan nan nan nan nan nan nan nan nan nan nan nan nan nan nan nan nan nan nan nan nan nan nan nan nan nan 16 18 23 26 27 27 28 29 30 32 32 33 33 31 29 28 29 31 30 30 30 30 31 31 31 29 28 23 21 18 16 16 18 23 28 31 35 41 44 47 46 42 39 36 35 34 31 30 29 27 24 26 30 38 38 35 36 37 38
nan nan nan nan nan nan nan nan nan nan nan nan nan nan nan nan nan nan nan nan nan nan nan nan nan nan nan nan nan nan nan nan nan 27 nan 27 nan nan nan nan 22 26 26 26 26 28 29 31 33 31 32 31 31 31 31 31 30 30 31 29 28 30 31 30 28 25 23 20 18 17 20 24 26 27 30 34 38 42 47 44 42 40 38 35 33 29 29 28 24 29 33 29 38 32 36 37 35
nan nan nan nan nan nan nan nan nan nan nan nan nan nan nan nan nan nan nan nan nan nan nan nan nan nan nan nan nan nan nan nan nan nan nan nan nan nan nan nan 20 23 25 25 25 25 27 26 33 30 31 30 29 32 33 33 32 31 31 28 27 27 28 28 29 27 23 27 27 25 23 22 23 26 27 30 33 36 42 46 44 43 41 38 35 33 30 29 26 31 34 32 36 36 36 37 36
nan nan nan nan nan nan nan nan nan nan nan nan nan nan nan nan nan nan nan nan nan nan nan nan nan nan nan nan nan nan nan nan nan nan nan nan nan nan nan nan nan 21 22 24 24 24 27 29 31 32 32 32 30 29 30 32 33 31 30 29 26 26 26 24 26 25 30 31 30 28 26 23 23 25 26 27 28 29 34 42 45 43 42 41 39 39 34 32 30 40 33 33 39 34 36 38 39
nan nan nan nan nan nan nan nan nan nan nan nan nan nan nan nan nan nan nan nan nan nan nan nan nan nan nan nan nan nan nan nan nan nan nan nan nan nan nan nan 28 25 23 23 23 24 24 27 28 30 32 33 31 28 28 29 32 34 31 29 28 27 27 24 26 26 29 32 31 30 29 26 23 23 25 25 25 25 27 36 43 43 42 43 44 43 40 37 44 41 41 41 37 35 39 36 40
nan nan nan nan nan nan nan nan nan nan nan nan nan nan nan nan nan nan nan nan nan nan nan nan nan nan nan nan nan nan nan nan nan nan nan nan nan nan nan nan nan nan 27 26 24 23 23 25 26 25 25 28 28 27 27 27 29 32 32 29 26 25 29 27 29 26 26 31 33 31 28 26 25 23 23 24 24 24 24 29 38 42 41 42 45 48 51 57 46 42 41 42 41 40 39 42 41
nan nan nan nan nan nan nan nan nan nan nan nan nan nan nan nan nan nan nan nan nan nan nan nan nan nan nan nan nan nan nan nan nan nan nan nan nan nan nan nan nan nan nan 29 29 26 23 23 25 25 24 23 25 26 26 26 28 30 32 30 27 25 27 29 29 27 27 30 33 32 29 27 25 23 22 22 23 24 24 27 32 39 40 39 45 48 61 60 54 45 40 39 44 44 42 44 44
nan nan nan nan nan nan nan nan nan nan nan nan nan nan nan nan nan nan nan nan nan nan nan nan nan nan nan nan nan nan nan nan nan nan nan nan nan nan nan nan nan nan nan nan nan 30 26 23 23 25 27 27 24 25 27 27 27 30 31 30 28 27 26 28 29 29 28 30 32 32 30 27 25 24 21 21 22 23 25 27 30 37 41 40 42 56 62 61 53 48 45 39 42 42 43 47 49
nan nan nan nan nan nan nan nan nan nan nan nan nan nan nan nan nan nan nan nan nan nan nan nan nan nan nan nan nan nan nan nan nan nan nan nan nan nan nan nan nan nan nan nan nan nan 32 28 24 24 27 29 27 27 27 27 27 31 34 32 31 28 26 28 29 31 32 31 32 33 30 27 25 25 23 22 21 22 26 29 32 43 45 46 47 57 59 60 57 50 43 41 38 42 45 50 50
nan nan nan nan nan nan nan nan nan nan nan nan nan nan nan nan nan nan nan nan nan nan nan nan nan nan nan nan nan nan nan nan nan nan nan nan nan nan nan nan nan nan nan nan 28 31 34 34 31 28 27 27 28 27 27 30 31 32 35 36 34 31 29 30 30 31 31 32 33 32 32 28 25 23 24 23 22 23 25 31 37 43 49 51 52 51 53 57 61 56 52 46 42 44 48 53 51
nan nan nan nan nan nan nan nan nan nan nan nan nan nan nan nan nan nan nan nan nan nan nan nan nan nan nan nan nan nan nan nan nan nan nan nan nan nan nan nan nan nan nan nan 29 30 32 35 36 35 32 30 30 30 28 28 34 34 36 37 36 33 30 31 32 31 31 32 33 33 32 31 28 24 22 24 24 24 34 35 38 37 42 47 49 49 54 52 56 57 59 54 50 51 51 52 nan
nan nan nan nan nan nan nan nan nan nan nan nan nan nan nan nan nan nan nan nan nan nan nan nan nan nan nan nan nan nan nan nan nan nan nan nan nan nan nan nan nan nan nan nan 34 33 33 34 35 36 36 35 34 32 29 28 28 35 34 36 36 35 33 31 33 33 32 32 32 33 32 29 27 25 26 22 28 29 37 34 31 35 34 45 53 46 54 51 54 58 62 59 55 nan nan nan nan
nan nan nan nan nan nan nan nan nan nan nan nan nan nan nan nan nan nan nan nan nan nan nan nan nan nan nan nan nan nan nan nan nan nan nan nan nan nan nan nan nan nan nan nan nan nan 35 35 35 36 37 38 37 36 35 31 28 31 29 32 35 35 34 33 34 34 35 32 33 34 33 29 27 26 22 23 25 32 33 35 30 33 34 38 43 41 48 50 52 56 57 57 56 nan nan nan nan
nan nan nan nan nan nan nan nan nan nan nan nan nan nan nan nan nan nan nan nan nan nan nan nan nan nan nan nan nan nan nan nan nan nan nan nan nan nan nan nan nan nan nan nan nan nan nan 34 36 37 36 37 38 37 38 35 31 31 32 30 31 35 35 35 32 34 34 34 33 33 33 30 28 27 24 26 28 35 33 33 32 30 35 37 38 38 42 51 51 52 56 nan nan nan nan nan nan
nan nan nan nan nan nan nan nan nan nan nan nan nan nan nan nan nan nan nan nan nan nan nan nan nan nan nan nan nan nan nan nan nan nan nan nan nan nan nan nan nan nan nan nan nan nan nan nan 35 37 36 37 38 37 38 39 36 34 34 33 31 33 34 35 34 32 34 35 32 33 32 32 32 28 38 36 34 29 32 33 34 36 31 35 40 49 44 47 52 52 nan nan nan nan nan nan nan
nan nan nan nan nan nan nan nan nan nan nan nan nan nan nan nan nan nan nan nan nan nan nan nan nan nan nan nan nan nan nan nan nan nan nan nan nan nan nan nan nan nan nan nan nan nan nan nan nan 35 36 36 36 36 37 38 39 37 34 34 34 33 34 35 35 33 33 33 33 33 32 34 34 31 31 28 23 26 29 31 33 33 30 34 40 39 50 48 43 44 50 nan nan nan nan nan nan
nan nan nan nan nan nan nan nan nan nan nan nan nan nan nan nan nan nan nan nan nan nan nan nan nan nan nan nan nan nan nan nan nan nan nan nan nan nan nan nan nan nan nan nan nan nan nan nan nan nan 37 36 34 34 35 35 38 39 36 34 35 36 35 33 34 34 32 32 33 33 35 36 34 35 32 27 23 26 27 28 32 32 29 34 36 38 45 43 39 nan nan nan nan nan nan nan nan
nan nan nan nan nan nan nan nan nan nan nan nan nan nan nan nan nan nan nan nan nan nan nan nan nan nan nan nan nan nan nan nan nan nan nan nan nan nan nan nan nan nan nan nan nan nan nan nan nan nan nan nan nan 35 35 35 37 39 39 37 36 37 35 34 33 34 32 31 33 35 35 35 36 36 35 28 23 24 24 27 31 31 29 31 36 39 45 45 46 50 nan nan nan nan nan nan nan
nan nan nan nan nan nan nan nan nan nan nan nan nan nan nan nan nan nan nan nan nan nan nan nan nan nan nan nan nan nan nan nan nan nan nan nan nan nan nan nan nan nan nan nan nan nan nan nan nan nan nan nan nan nan 37 36 35 36 39 41 41 40 40 36 34 34 33 32 33 34 35 35 36 38 38 32 26 26 24 26 30 32 33 34 37 40 44 49 52 56 53 nan nan nan nan nan nan
nan nan nan nan nan nan nan nan nan nan nan nan nan nan nan nan nan nan nan nan nan nan nan nan nan nan nan nan nan nan nan nan nan nan nan nan nan nan nan nan nan nan nan nan nan nan nan nan nan nan nan nan nan nan 39 39 37 37 38 40 41 42 40 38 35 35 35 33 33 34 36 34 35 38 38 34 29 27 27 28 30 32 36 36 38 43 44 51 52 56 58 nan nan nan nan nan nan
nan nan nan nan nan nan nan nan nan nan nan nan nan nan nan nan nan nan nan nan nan nan nan nan nan nan nan nan nan nan nan nan nan nan nan nan nan nan nan nan nan nan nan nan nan nan nan nan nan nan nan nan nan nan nan 40 40 39 38 38 39 43 39 37 35 36 37 36 34 35 36 35 35 37 38 36 31 28 27 27 28 31 35 34 37 43 48 51 53 55 59 56 48 nan nan nan nan
nan nan nan nan nan nan nan nan nan nan nan nan nan nan nan nan nan nan nan nan nan nan nan nan nan nan nan nan nan nan nan nan nan nan nan nan nan nan nan nan nan nan nan nan nan nan nan nan nan nan nan nan nan nan nan nan 40 41 41 40 39 42 39 38 37 38 38 38 36 36 36 36 36 37 37 36 34 29 28 28 28 30 33 34 36 42 47 51 54 56 60 61 54 nan nan nan nan
nan nan nan nan nan nan nan nan nan nan nan nan nan nan nan nan nan nan nan nan nan nan nan nan nan nan nan nan nan nan nan nan nan nan nan nan nan nan nan nan nan nan nan nan nan nan nan nan nan nan nan nan nan nan nan 42 41 42 43 42 43 42 39 40 41 39 42 39 37 36 38 38 38 38 38 36 34 33 30 28 30 31 32 nan 37 41 46 51 51 54 60 63 61 62 nan nan nan
nan nan nan nan nan nan nan nan nan nan nan nan nan nan nan nan nan nan nan nan nan nan nan nan nan nan nan nan nan nan nan nan nan nan nan nan nan nan nan nan nan nan nan nan nan nan nan nan nan nan nan nan nan nan nan nan 46 43 44 47 46 46 43 41 41 40 39 40 39 36 38 39 40 39 39 36 36 35 32 31 31 31 nan nan 40 41 44 52 55 58 60 64 63 nan nan nan nan
nan nan nan nan nan nan nan nan nan nan nan nan nan nan nan nan nan nan nan nan nan nan nan nan nan nan nan nan nan nan nan nan nan nan nan nan nan nan nan nan nan nan nan nan nan nan nan nan nan nan nan nan nan nan nan nan nan nan nan 50 51 49 48 46 41 39 41 41 41 37 37 39 41 41 40 37 35 36 35 32 31 31 32 nan 42 nan 45 51 56 57 58 61 61 nan nan nan nan
nan nan nan nan nan nan nan nan nan nan nan nan nan nan nan nan nan nan nan nan nan nan nan nan nan nan nan nan nan nan nan nan nan nan nan nan nan nan nan nan nan nan nan nan nan nan nan nan nan nan nan nan nan nan nan nan nan nan 48 50 53 51 51 50 46 43 42 43 45 41 36 38 40 41 41 38 35 35 36 32 30 32 nan nan nan nan 46 48 53 56 56 nan 60 nan nan nan nan
nan nan nan nan nan nan nan nan nan nan nan nan nan nan nan nan nan nan nan nan nan nan nan nan nan nan nan nan nan nan nan nan nan nan nan nan nan nan nan nan nan nan nan nan nan nan nan nan nan nan nan nan nan nan nan nan nan nan 49 51 51 54 54 52 51 46 44 44 46 46 41 38 40 44 42 39 36 33 34 nan nan nan 33 nan 39 nan nan nan 48 52 54 55 nan nan nan nan nan
nan nan nan nan nan nan nan nan nan nan nan nan nan nan nan nan nan nan nan nan nan nan nan nan nan nan nan nan nan nan nan nan nan nan nan nan nan nan nan nan nan nan nan nan nan nan nan nan nan nan nan nan nan nan nan nan nan nan nan nan 52 56 54 53 52 50 46 45 49 49 48 41 41 46 47 42 39 32 33 32 nan nan nan nan nan nan nan nan nan 46 nan nan nan nan nan nan nan
nan nan nan nan nan nan nan nan nan nan nan nan nan nan nan nan nan nan nan nan nan nan nan nan nan nan nan nan nan nan nan nan nan nan nan nan nan nan nan nan nan nan nan nan nan nan nan nan nan nan nan nan nan nan nan nan nan nan nan 57 55 55 55 55 52 53 51 50 48 49 49 47 47 49 52 nan 39 32 31 35 nan nan 33 nan nan nan nan nan nan nan nan nan nan nan nan nan nan
nan nan nan nan nan nan nan nan nan nan nan nan nan nan nan nan nan nan nan nan nan nan nan nan nan nan nan nan nan nan nan nan nan nan nan nan nan nan nan nan nan nan nan nan nan nan nan nan nan nan nan nan nan nan nan 60 64 66 65 62 56 53 54 58 56 54 53 53 51 49 49 47 48 49 49 46 41 35 32 36 nan nan nan nan nan nan nan nan nan nan nan nan nan nan nan nan nan
nan nan nan nan nan nan nan nan nan nan nan nan nan nan nan nan nan nan nan nan nan nan nan nan nan nan nan nan nan nan nan nan nan nan nan nan nan nan nan nan nan nan nan nan nan nan nan nan nan nan nan nan nan nan nan nan nan 69 68 66 62 58 58 56 nan 54 54 55 52 50 49 51 50 47 47 47 41 nan 33 36 39 nan nan nan nan nan nan nan nan nan nan nan nan nan nan nan nan
nan nan nan nan nan nan nan nan nan nan nan nan nan nan nan nan nan nan nan nan nan nan nan nan nan nan nan nan nan nan nan nan nan nan nan nan nan nan nan nan nan nan nan nan nan nan nan nan nan nan nan nan nan nan nan nan nan nan 69 67 64 62 60 59 57 53 52 53 53 50 50 51 nan 50 47 44 39 39 34 34 nan nan nan nan nan nan nan nan nan nan nan nan nan nan nan nan 62
nan nan nan nan nan nan nan nan nan nan nan nan nan nan nan nan nan nan nan nan nan nan nan nan nan nan nan nan nan nan nan nan nan nan nan nan nan nan nan nan nan nan nan nan nan nan nan nan nan nan nan nan nan nan nan nan nan nan nan 66 65 64 64 nan 55 54 53 54 53 54 54 53 54 52 50 43 41 43 39 nan nan nan nan nan nan nan nan nan nan nan nan nan nan nan nan nan nan
nan nan nan nan nan nan nan nan nan nan nan nan nan nan nan nan nan nan nan nan nan nan nan nan nan nan nan nan nan nan nan nan nan nan nan nan nan nan nan nan nan nan nan nan nan nan nan nan nan nan nan nan nan nan nan nan nan nan nan nan 64 64 62 63 60 51 51 56 53 50 54 54 53 nan nan 48 44 45 40 nan nan nan nan nan nan nan nan nan nan nan nan nan nan nan nan nan nan
nan nan nan nan nan nan nan nan nan nan nan nan nan nan nan nan nan nan nan nan nan nan nan nan nan nan nan nan nan nan nan nan nan nan nan nan nan nan nan nan nan nan nan nan nan nan nan nan nan nan nan nan nan nan nan nan nan nan nan nan 61 62 62 62 62 55 47 52 54 52 52 52 54 59 nan 53 nan 46 42 nan nan nan nan nan nan nan nan nan nan nan nan nan nan nan nan nan nan
nan nan nan nan nan nan nan nan nan nan nan nan nan nan nan nan nan nan nan nan nan nan nan nan nan nan nan nan nan nan nan nan nan nan nan nan nan nan nan nan nan nan nan nan nan nan nan nan nan nan nan nan nan nan nan nan nan nan nan nan nan 60 62 62 61 59 52 51 53 53 53 52 49 55 59 nan nan 45 41 nan nan nan nan nan nan nan nan nan nan nan nan nan nan nan nan nan nan
nan nan nan nan nan nan nan nan nan nan nan nan nan nan nan nan nan nan nan nan nan nan nan nan nan nan nan nan nan nan nan nan nan nan nan nan nan nan nan nan nan nan nan nan nan nan nan nan nan nan nan nan nan nan nan nan nan nan nan nan nan nan nan nan 62 58 nan 53 nan nan 58 57 50 51 57 nan nan nan 41 40 nan nan nan nan nan nan nan nan nan nan nan nan nan nan nan nan nan
nan nan nan nan nan nan nan nan nan nan nan nan nan nan nan nan nan nan nan nan nan nan nan nan nan nan nan nan nan nan nan nan nan nan nan nan nan nan nan nan nan nan nan nan nan nan nan nan nan nan nan nan nan nan nan nan nan nan nan nan nan nan nan nan 65 64 60 56 52 51 55 56 53 51 54 58 nan 52 44 46 nan nan nan nan nan nan nan nan nan nan nan nan nan nan nan nan nan
nan nan nan nan nan nan nan nan nan nan nan nan nan nan nan nan nan nan nan nan nan nan nan nan nan nan nan nan nan nan nan nan nan nan nan nan nan nan nan nan nan nan nan nan nan nan nan nan nan nan nan nan nan nan nan nan nan nan nan nan nan nan nan nan nan nan 63 59 55 54 55 55 nan nan 56 59 62 nan nan nan nan nan nan nan nan nan nan nan nan nan nan nan nan nan nan nan nan
nan nan nan nan nan nan nan nan nan nan nan nan nan nan nan nan nan nan nan nan nan nan nan nan nan nan nan nan nan nan nan nan nan nan nan nan nan nan nan nan nan nan nan nan nan nan nan nan nan nan nan nan nan nan nan nan nan nan nan nan nan nan nan nan nan nan nan nan nan 54 53 55 nan nan nan 62 62 nan nan nan nan nan nan nan nan nan nan nan nan nan nan nan nan nan nan nan nan
nan nan nan nan nan nan nan nan nan nan nan nan nan nan nan nan nan nan nan nan nan nan nan nan nan nan nan nan nan nan nan nan nan nan nan nan nan nan nan nan nan nan nan nan nan nan nan nan nan nan nan nan nan nan nan nan nan nan nan nan nan nan nan nan nan nan nan nan nan 53 50 51 57 nan nan nan nan nan nan nan nan nan nan nan nan nan nan nan nan nan nan nan nan nan nan nan nan
nan nan nan nan nan nan nan nan nan nan nan nan nan nan nan nan nan nan nan nan nan nan nan nan nan nan nan nan nan nan nan nan nan nan nan nan nan nan nan nan nan nan nan nan nan nan nan nan nan nan nan nan nan nan nan nan nan nan nan nan nan nan nan nan nan nan nan nan nan 62 55 49 56 nan nan 63 60 nan nan nan nan nan nan nan nan nan nan nan nan nan nan nan nan nan nan nan nan
nan nan nan nan nan nan nan nan nan nan nan nan nan nan nan nan nan nan nan nan nan nan nan nan nan nan nan nan nan nan nan nan nan nan nan nan nan nan nan nan nan nan nan nan nan nan nan nan nan nan nan nan nan nan nan nan nan nan nan nan nan nan nan nan nan nan nan nan nan nan nan 50 49 58 nan nan nan nan nan nan nan nan nan nan nan nan nan nan nan nan nan nan nan nan nan nan nan
nan nan nan nan nan nan nan nan nan nan nan nan nan nan nan nan nan nan nan nan nan nan nan nan nan nan nan nan nan nan nan nan nan nan nan nan nan nan nan nan nan nan nan nan nan nan nan nan nan nan nan nan nan nan nan nan nan nan nan nan nan nan nan nan nan nan nan nan nan nan nan nan 52 nan nan nan nan nan nan nan nan nan nan nan nan nan nan nan nan nan nan nan nan nan nan nan nan
nan nan nan nan nan nan nan nan nan nan nan nan nan nan nan nan nan nan nan nan nan nan nan nan nan nan nan nan nan nan nan nan nan nan nan nan nan nan nan nan nan nan nan nan nan nan nan nan nan nan nan nan nan nan nan nan nan nan nan nan nan nan nan nan nan nan nan nan nan nan nan nan nan 56 nan nan nan nan nan nan nan nan nan nan nan nan nan nan nan nan nan nan nan nan nan nan nan
nan nan nan nan nan nan nan nan nan nan nan nan nan nan nan nan nan nan nan nan nan nan nan nan nan nan nan nan nan nan nan nan nan nan nan nan nan nan nan nan nan nan nan nan nan nan nan nan nan nan nan nan nan nan nan nan nan nan nan nan nan nan nan nan nan nan nan nan nan nan nan nan nan nan nan nan nan nan nan nan nan nan nan nan nan nan nan nan nan nan nan nan nan nan nan nan nan
nan nan nan nan nan nan nan nan nan nan nan nan nan nan nan nan nan nan nan nan nan nan nan nan nan nan nan nan nan nan nan nan nan nan nan nan nan nan nan nan nan nan nan nan nan nan nan nan nan nan nan nan nan nan nan nan nan nan nan nan nan nan nan nan nan nan nan nan nan nan nan nan nan nan nan nan nan nan nan nan nan nan nan nan nan nan nan nan nan nan nan nan nan nan nan nan nan
nan nan nan nan nan nan nan nan nan nan nan nan nan nan nan nan nan nan nan nan nan nan nan nan nan nan nan nan nan nan nan nan nan nan nan nan nan nan nan nan nan nan nan nan nan nan nan nan nan nan nan nan nan nan nan nan nan nan nan nan nan nan nan nan nan nan nan nan nan nan nan nan nan nan nan nan nan nan nan nan nan nan nan nan 44 nan nan nan nan nan nan nan nan nan nan nan nan
nan nan nan nan nan nan nan nan nan nan nan nan nan nan nan nan nan nan nan nan nan nan nan nan nan nan nan nan nan nan nan nan nan nan nan nan nan nan nan nan nan nan nan nan nan nan nan nan nan nan nan nan nan nan nan nan nan nan nan nan nan nan nan nan nan nan nan nan nan nan nan nan nan nan nan nan nan nan nan nan nan nan nan nan nan nan nan nan nan nan nan nan nan nan nan nan nan
nan nan nan nan nan nan nan nan nan nan nan nan nan nan nan nan nan nan nan nan nan nan nan nan nan nan nan nan nan nan nan nan nan nan nan nan nan nan nan nan nan nan nan nan nan nan nan nan nan nan nan nan nan nan nan nan nan nan nan nan nan nan nan nan nan nan nan nan nan nan nan nan nan nan nan nan nan nan nan nan nan nan nan nan nan nan nan nan nan nan nan nan nan nan nan nan nan
nan nan nan nan nan nan nan nan nan nan nan nan nan nan nan nan nan nan nan nan nan nan nan nan nan nan nan nan nan nan nan nan nan nan nan nan nan nan nan nan nan nan nan nan nan nan nan nan nan nan nan nan nan nan nan nan nan nan nan nan nan nan nan nan nan nan nan nan nan nan nan nan nan nan nan nan nan nan nan nan nan nan nan nan nan nan nan nan nan nan nan nan nan nan nan nan nan
nan nan nan nan nan nan nan nan nan nan nan nan nan nan nan nan nan nan nan nan nan nan nan nan nan nan nan nan nan nan nan nan nan nan nan nan nan nan nan nan nan nan nan nan nan nan nan nan nan nan nan nan nan nan nan nan nan nan nan nan nan nan nan nan nan nan nan nan nan nan nan nan nan nan nan nan nan nan nan nan nan nan nan nan nan nan nan nan nan nan nan nan nan nan nan nan nan
nan nan nan nan nan nan nan nan nan nan nan nan nan nan nan nan nan nan nan nan nan nan nan nan nan nan nan nan nan nan nan nan nan nan nan nan nan nan nan nan nan nan nan nan nan nan nan nan nan nan nan nan nan nan nan nan nan nan nan nan nan nan nan nan nan nan nan nan nan nan nan nan nan nan nan nan nan nan nan nan nan nan nan nan nan nan nan nan nan nan nan nan nan nan nan nan nan
Wind_Direction
nan nan nan nan nan nan nan nan nan nan nan nan nan nan nan nan nan nan nan nan nan nan nan nan nan nan nan nan nan nan nan nan nan nan nan nan 12 18 15 12 6 360 357 352 350 346 347 346 350 348 345 343 342 343 346 343 343 340 338 338 330 320 306 296 288 276 268 260 252 248 246 245 242 242 242 242 241 237 237 235 236 236 233 231 230 231 230 231 234 238 239 255 261 257 256 264 261
nan nan nan nan nan nan nan nan nan nan nan nan nan nan nan nan nan nan nan nan nan nan nan nan nan nan nan nan nan nan nan nan nan nan nan nan nan nan 17 14 9 4 358 354 352 350 349 347 346 349 346 343 341 341 343 341 340 338 337 338 334 330 322 306 293 283 274 265 258 252 248 246 244 243 244 244 243 241 242 241 238 237 234 231 229 230 231 232 236 239 242 258 262 262 263 261 260
nan nan nan nan nan nan nan nan nan nan nan nan nan nan nan nan nan nan nan nan nan nan nan nan nan nan nan nan nan nan nan nan nan nan nan nan nan nan 7 11 13 8 2 357 355 352 349 350 342 350 342 342 343 340 339 338 337 336 334 335 336 336 335 324 308 296 285 272 263 256 250 248 247 246 244 244 244 243 242 242 240 239 237 233 229 228 230 233 237 240 243 252 262 261 262 260 261
nan nan nan nan nan nan nan nan nan nan nan nan nan nan nan nan nan nan nan nan nan nan nan nan nan nan nan nan nan nan nan nan nan nan nan nan nan 356 7 7 10 10 8 5 2 358 354 346 342 350 342 343 342 341 339 336 334 333 333 333 334 335 337 336 325 314 303 288 272 262 257 253 250 247 245 243 244 246 244 242 239 236 234 235 231 228 230 232 236 242 242 255 263 250 256 264 264
nan nan nan nan nan nan nan nan nan nan nan nan nan nan nan nan nan nan nan nan nan nan nan nan nan nan nan nan nan nan nan nan nan nan nan nan nan nan 3 3 5 10 11 10 9 7 3 356 348 349 341 339 340 342 339 334 332 334 332 332 331 333 335 337 335 329 319 308 290 272 262 259 256 247 244 240 235 236 241 239 238 236 231 230 232 231 230 232 234 241 248 259 266 264 258 264 260
nan nan nan nan nan nan nan nan nan nan nan nan nan nan nan nan nan nan nan nan nan nan nan nan nan nan nan nan nan nan nan nan nan nan nan nan nan nan 6 4 6 9 9 8 8 8 9 356 359 353 345 339 335 335 338 333 332 332 329 326 329 331 334 334 338 334 328 322 312 294 274 264 257 251 246 242 237 230 230 236 233 234 231 226 227 232 232 230 231 240 250 262 265 263 263 265 266
nan nan nan nan nan nan nan nan nan nan nan nan nan nan nan nan nan nan nan nan nan nan nan nan nan nan nan nan nan nan nan nan nan 345 nan 340 nan nan nan nan 5 8 4 2 4 8 10 358 5 359 351 343 338 333 333 334 333 329 325 327 324 326 327 330 332 333 332 328 322 308 289 275 265 257 252 248 243 236 232 233 231 230 230 228 228 229 233 232 228 241 255 257 270 271 268 269 267
nan nan nan nan nan nan nan nan nan nan nan nan nan nan nan nan nan nan nan nan nan nan nan nan nan nan nan nan nan nan nan nan nan nan nan nan nan nan nan nan 359 2 355 354 357 2 2 1 6 1 357 353 342 339 333 333 331 326 324 325 326 323 319 324 324 328 332 316 313 309 304 290 278 267 260 254 247 243 237 232 229 230 230 228 229 232 234 233 226 243 256 265 273 269 265 269 268
nan nan nan nan nan nan nan nan nan nan nan nan nan nan nan nan nan nan nan nan nan nan nan nan nan nan nan nan nan nan nan nan nan nan nan nan nan nan nan nan nan 348 346 344 346 348 357 359 3 2 360 358 352 341 332 328 328 325 326 323 322 316 314 314 312 316 311 313 315 311 305 301 292 278 268 259 255 250 243 235 229 229 229 230 232 232 233 232 225 249 250 255 264 259 262 263 261
nan nan nan nan nan nan nan nan nan nan nan nan nan nan nan nan nan nan nan nan nan nan nan nan nan nan nan nan nan nan nan nan nan nan nan nan nan nan nan nan 337 338 338 338 336 340 344 342 354 358 358 358 355 346 339 332 328 324 324 325 325 317 311 309 304 310 306 309 312 312 310 308 301 289 274 266 261 255 248 240 231 230 229 231 234 233 232 229 242 255 253 253 260 263 263 264 259
nan nan nan nan nan nan nan nan nan nan nan nan nan nan nan nan nan nan nan nan nan nan nan nan nan nan nan nan nan nan nan nan nan nan nan nan nan nan nan nan nan nan 330 328 328 330 334 337 341 349 349 352 350 347 344 338 334 332 324 322 320 312 313 309 305 307 311 308 309 310 309 309 308 299 283 269 261 255 249 242 233 229 230 229 233 234 235 243 245 246 258 266 270 263 257 261 262
nan nan nan nan nan nan nan nan nan nan nan nan nan nan nan nan nan nan nan nan nan nan nan nan nan nan nan nan nan nan nan nan nan nan nan nan nan nan nan nan nan nan nan 318 320 325 327 327 330 335 342 342 343 343 342 339 336 333 328 323 320 310 306 308 305 310 312 308 306 307 307 307 306 305 295 277 263 254 246 239 232 226 228 228 232 234 243 242 243 246 248 265 264 257 259 260 259
nan nan nan nan nan nan nan nan nan nan nan nan nan nan nan nan nan nan nan nan nan nan nan nan nan nan nan nan nan nan nan nan nan nan nan nan nan nan nan nan nan nan nan nan nan 319 318 320 324 327 330 332 332 335 336 336 334 331 330 328 321 312 307 307 308 308 309 304 304 306 308 308 307 305 297 285 269 256 247 240 232 225 228 229 230 243 248 247 247 246 245 248 253 262 258 255 253
nan nan nan nan nan nan nan nan nan nan nan nan nan nan nan nan nan nan nan nan nan nan nan nan nan nan nan nan nan nan nan nan nan nan nan nan nan nan nan nan nan nan nan nan nan nan 313 313 315 317 320 322 326 326 329 331 329 328 331 331 322 308 306 303 303 303 303 303 301 302 305 306 306 303 297 290 279 261 248 242 234 230 227 229 235 249 249 247 247 246 253 254 245 249 250 252 249
nan nan nan nan nan nan nan nan nan nan nan nan nan nan nan nan nan nan nan nan nan nan nan nan nan nan nan nan nan nan nan nan nan nan nan nan nan nan nan nan nan nan nan nan 318 316 315 312 311 307 310 313 320 320 320 325 329 326 328 328 325 317 306 304 301 299 299 299 299 299 301 301 294 297 295 290 280 264 253 241 243 240 233 234 234 250 253 248 247 249 251 254 254 256 252 253 251
nan nan nan nan nan nan nan nan nan nan nan nan nan nan nan nan nan nan nan nan nan nan nan nan nan nan nan nan nan nan nan nan nan nan nan nan nan nan nan nan nan nan nan nan 322 318 316 314 310 308 307 309 311 314 317 322 320 323 323 323 325 321 310 304 302 299 298 297 297 297 297 296 295 288 288 285 281 268 251 240 250 245 239 241 236 249 257 253 250 247 245 244 253 250 252 253 nan
nan nan nan nan nan nan nan nan nan nan nan nan nan nan nan nan nan nan nan nan nan nan nan nan nan nan nan nan nan nan nan nan nan nan nan nan nan nan nan nan nan nan nan nan 327 321 319 316 316 312 312 312 312 312 312 315 315 311 314 317 319 320 314 309 303 299 296 291 291 291 290 291 295 293 288 285 282 268 259 254 250 249 248 241 233 237 258 260 257 250 246 246 245 nan nan nan nan
nan nan nan nan nan nan nan nan nan nan nan nan nan nan nan nan nan nan nan nan nan nan nan nan nan nan nan nan nan nan nan nan nan nan nan nan nan nan nan nan nan nan nan nan nan nan 322 319 317 316 311 314 312 309 305 301 301 304 313 313 311 313 312 311 305 298 292 290 287 285 286 287 288 292 288 283 281 272 263 257 253 243 246 247 240 235 255 257 256 253 250 247 246 nan nan nan nan
nan nan nan nan nan nan nan nan nan nan nan nan nan nan nan nan nan nan nan nan nan nan nan nan nan nan nan nan nan nan nan nan nan nan nan nan nan nan nan nan nan nan nan nan nan nan nan 317 315 315 314 310 311 310 304 300 299 300 304 307 307 308 310 307 309 301 293 288 287 284 282 284 283 286 283 273 270 269 268 264 258 255 241 241 243 233 244 256 254 253 253 nan nan nan nan nan nan
nan nan nan nan nan nan nan nan nan nan nan nan nan nan nan nan nan nan nan nan nan nan nan nan nan nan nan nan nan nan nan nan nan nan nan nan nan nan nan nan nan nan nan nan nan nan nan nan 315 313 315 315 311 307 304 304 301 298 296 299 303 303 306 305 308 304 294 290 289 282 280 281 279 282 269 271 272 271 266 264 257 255 239 228 240 227 234 253 261 255 nan nan nan nan nan nan nan
nan nan nan nan nan nan nan nan nan nan nan nan nan nan nan nan nan nan nan nan nan nan nan nan nan nan nan nan nan nan nan nan nan nan nan nan nan nan nan nan nan nan nan nan nan nan nan nan nan 308 308 312 316 309 303 304 305 299 292 292 298 302 300 302 302 301 297 290 286 283 279 276 276 278 278 273 272 268 264 262 259 259 244 236 241 228 233 239 243 244 242 nan nan nan nan nan nan
nan nan nan nan nan nan nan nan nan nan nan nan nan nan nan nan nan nan nan nan nan nan nan nan nan nan nan nan nan nan nan nan nan nan nan nan nan nan nan nan nan nan nan nan nan nan nan nan nan nan 301 304 307 305 298 296 299 302 297 289 290 296 297 296 298 296 295 291 284 281 276 274 275 276 278 276 271 267 263 261 261 259 246 233 240 234 235 232 227 nan nan nan nan nan nan nan nan
nan nan nan nan nan nan nan nan nan nan nan nan nan nan nan nan nan nan nan nan nan nan nan nan nan nan nan nan nan nan nan nan nan nan nan nan nan nan nan nan nan nan nan nan nan nan nan nan nan nan nan nan nan 297 290 287 289 294 296 292 288 288 291 289 294 292 291 292 286 279 276 274 273 275 277 276 271 268 264 260 259 259 250 234 237 238 239 230 222 224 nan nan nan nan nan nan nan
nan nan nan nan nan nan nan nan nan nan nan nan nan nan nan nan nan nan nan nan nan nan nan nan nan nan nan nan nan nan nan nan nan nan nan nan nan nan nan nan nan nan nan nan nan nan nan nan nan nan nan nan nan nan 291 286 281 283 287 289 287 283 284 289 288 287 287 289 287 280 275 273 273 273 275 275 270 265 266 263 256 256 251 242 242 240 237 230 224 229 228 nan nan nan nan nan nan
nan nan nan nan nan nan nan nan nan nan nan nan nan nan nan nan nan nan nan nan nan nan nan nan nan nan nan nan nan nan nan nan nan nan nan nan nan nan nan nan nan nan nan nan nan nan nan nan nan nan nan nan nan nan 287 284 281 278 277 283 289 282 284 285 285 284 282 285 287 281 273 272 271 271 273 272 269 264 264 266 258 252 252 249 246 241 239 234 229 232 237 nan nan nan nan nan nan
nan nan nan nan nan nan nan nan nan nan nan nan nan nan nan nan nan nan nan nan nan nan nan nan nan nan nan nan nan nan nan nan nan nan nan nan nan nan nan nan nan nan nan nan nan nan nan nan nan nan nan nan nan nan nan 280 279 279 275 276 281 276 278 279 282 282 280 279 280 279 274 271 270 269 270 270 269 266 263 265 262 249 252 254 253 247 240 235 229 230 239 235 226 nan nan nan nan
nan nan nan nan nan nan nan nan nan nan nan nan nan nan nan nan nan nan nan nan nan nan nan nan nan nan nan nan nan nan nan nan nan nan nan nan nan nan nan nan nan nan nan nan nan nan nan nan nan nan nan nan nan nan nan nan 273 274 272 268 270 272 273 272 274 276 278 276 275 275 273 270 268 267 268 269 267 266 262 261 262 255 253 253 254 252 241 238 233 233 240 243 235 nan nan nan nan
nan nan nan nan nan nan nan nan nan nan nan nan nan nan nan nan nan nan nan nan nan nan nan nan nan nan nan nan nan nan nan nan nan nan nan nan nan nan nan nan nan nan nan nan nan nan nan nan nan nan nan nan nan nan nan 271 269 266 266 265 263 266 268 265 269 273 268 273 274 270 271 267 265 266 266 266 266 265 262 259 262 259 256 nan 255 257 247 241 238 236 240 246 244 240 nan nan nan
nan nan nan nan nan nan nan nan nan nan nan nan nan nan nan nan nan nan nan nan nan nan nan nan nan nan nan nan nan nan nan nan nan nan nan nan nan nan nan nan nan nan nan nan nan nan nan nan nan nan nan nan nan nan nan nan 264 263 260 260 259 259 262 262 262 266 266 267 267 268 267 268 263 264 264 264 262 263 261 258 259 259 nan nan 258 259 255 242 241 240 241 244 246 nan nan nan nan
nan nan nan nan nan nan nan nan nan nan nan nan nan nan nan nan nan nan nan nan nan nan nan nan nan nan nan nan nan nan nan nan nan nan nan nan nan nan nan nan nan nan nan nan nan nan nan nan nan nan nan nan nan nan nan nan nan nan nan 255 254 255 256 256 258 259 259 260 263 264 264 266 263 262 261 261 259 259 261 258 258 258 252 nan 253 nan 254 248 244 249 251 250 248 nan nan nan nan
nan nan nan nan nan nan nan nan nan nan nan nan nan nan nan nan nan nan nan nan nan nan nan nan nan nan nan nan nan nan nan nan nan nan nan nan nan nan nan nan nan nan nan nan nan nan nan nan nan nan nan nan nan nan nan nan nan nan 252 253 253 250 250 255 255 253 254 255 257 259 261 262 262 262 260 258 255 254 258 259 257 257 nan nan nan nan 258 254 247 246 249 nan 250 nan nan nan nan
nan nan nan nan nan nan nan nan nan nan nan nan nan nan nan nan nan nan nan nan nan nan nan nan nan nan nan nan nan nan nan nan nan nan nan nan nan nan nan nan nan nan nan nan nan nan nan nan nan nan nan nan nan nan nan nan nan nan 250 249 248 251 248 247 251 253 250 251 253 255 258 258 259 261 259 257 252 249 253 nan nan nan 258 nan 252 nan nan nan 252 247 246 256 nan nan nan nan nan
nan nan nan nan nan nan nan nan nan nan nan nan nan nan nan nan nan nan nan nan nan nan nan nan nan nan nan nan nan nan nan nan nan nan nan nan nan nan nan nan nan nan nan nan nan nan nan nan nan nan nan nan nan nan nan nan nan nan nan nan 247 250 249 247 246 246 247 248 249 251 254 255 258 258 257 254 249 248 248 252 nan nan nan nan nan nan nan nan nan 252 nan nan nan nan nan nan nan
nan nan nan nan nan nan nan nan nan nan nan nan nan nan nan nan nan nan nan nan nan nan nan nan nan nan nan nan nan nan nan nan nan nan nan nan nan nan nan nan nan nan nan nan nan nan nan nan nan nan nan nan nan nan nan nan nan nan nan 248 246 248 252 250 245 245 245 244 245 250 253 251 249 255 255 nan 245 243 247 250 nan nan 256 nan nan nan nan nan nan nan nan nan nan nan nan nan nan
nan nan nan nan nan nan nan nan nan nan nan nan nan nan nan nan nan nan nan nan nan nan nan nan nan nan nan nan nan nan nan nan nan nan nan nan nan nan nan nan nan nan nan nan nan nan nan nan nan nan nan nan nan nan nan 251 251 251 252 249 246 247 250 252 248 245 245 245 245 247 251 253 249 252 256 258 251 244 245 249 nan nan nan nan nan nan nan nan nan nan nan nan nan nan nan nan nan
nan nan nan nan nan nan nan nan nan nan nan nan nan nan nan nan nan nan nan nan nan nan nan nan nan nan nan nan nan nan nan nan nan nan nan nan nan nan nan nan nan nan nan nan nan nan nan nan nan nan nan nan nan nan nan nan nan 249 250 248 246 245 248 250 nan 248 247 247 244 244 250 252 252 251 254 255 251 nan 243 245 252 nan nan nan nan nan nan nan nan nan nan nan nan nan nan nan nan
nan nan nan nan nan nan nan nan nan nan nan nan nan nan nan nan nan nan nan nan nan nan nan nan nan nan nan nan nan nan nan nan nan nan nan nan nan nan nan nan nan nan nan nan nan nan nan nan nan nan nan nan nan nan nan nan nan nan 245 245 242 243 245 248 249 247 247 249 248 245 244 248 nan 251 249 251 251 247 244 245 nan nan nan nan nan nan nan nan nan nan nan nan nan nan nan nan 249
nan nan nan nan nan nan nan nan nan nan nan nan nan nan nan nan nan nan nan nan nan nan nan nan nan nan nan nan nan nan nan nan nan nan nan nan nan nan nan nan nan nan nan nan nan nan nan nan nan nan nan nan nan nan nan nan nan nan nan 242 243 242 242 nan 246 249 247 246 247 247 246 246 246 246 245 251 248 247 242 nan nan nan nan nan nan nan nan nan nan nan nan nan nan nan nan nan nan
nan nan nan nan nan nan nan nan nan nan nan nan nan nan nan nan nan nan nan nan nan nan nan nan nan nan nan nan nan nan nan nan nan nan nan nan nan nan nan nan nan nan nan nan nan nan nan nan nan nan nan nan nan nan nan nan nan nan nan nan 241 241 240 241 242 242 245 248 243 240 242 245 246 nan nan 243 245 245 244 nan nan nan nan nan nan nan nan nan nan nan nan nan nan nan nan nan nan
nan nan nan nan nan nan nan nan nan nan nan nan nan nan nan nan nan nan nan nan nan nan nan nan nan nan nan nan nan nan nan nan nan nan nan nan nan nan nan nan nan nan nan nan nan nan nan nan nan nan nan nan nan nan nan nan nan nan nan nan 235 242 240 236 237 239 241 244 242 239 238 241 245 246 nan 242 nan 241 242 nan nan nan nan nan nan nan nan nan nan nan nan nan nan nan nan nan nan
nan nan nan nan nan nan nan nan nan nan nan nan nan nan nan nan nan nan nan nan nan nan nan nan nan nan nan nan nan nan nan nan nan nan nan nan nan nan nan nan nan nan nan nan nan nan nan nan nan nan nan nan nan nan nan nan nan nan nan nan nan 236 242 239 235 235 233 236 239 237 235 237 241 247 246 nan nan 240 239 nan nan nan nan nan nan nan nan nan nan nan nan nan nan nan nan nan nan
nan nan nan nan nan nan nan nan nan nan nan nan nan nan nan nan nan nan nan nan nan nan nan nan nan nan nan nan nan nan nan nan nan nan nan nan nan nan nan nan nan nan nan nan nan nan nan nan nan nan nan nan nan nan nan nan nan nan nan nan nan nan nan nan 233 230 nan 233 nan nan 232 233 233 242 246 nan nan nan 237 238 nan nan nan nan nan nan nan nan nan nan nan nan nan nan nan nan nan
nan nan nan nan nan nan nan nan nan nan nan nan nan nan nan nan nan nan nan nan nan nan nan nan nan nan nan nan nan nan nan nan nan nan nan nan nan nan nan nan nan nan nan nan nan nan nan nan nan nan nan nan nan nan nan nan nan nan nan nan nan nan nan nan 228 228 226 224 232 237 233 235 234 237 244 244 nan 238 235 234 nan nan nan nan nan nan nan nan nan nan nan nan nan nan nan nan nan
nan nan nan nan nan nan nan nan nan nan nan nan nan nan nan nan nan nan nan nan nan nan nan nan nan nan nan nan nan nan nan nan nan nan nan nan nan nan nan nan nan nan nan nan nan nan nan nan nan nan nan nan nan nan nan nan nan nan nan nan nan nan nan nan nan nan 223 223 225 234 233 231 nan nan 237 241 242 nan nan nan nan nan nan nan nan nan nan nan nan nan nan nan nan nan nan nan nan
nan nan nan nan nan nan nan nan nan nan nan nan nan nan nan nan nan nan nan nan nan nan nan nan nan nan nan nan nan nan nan nan nan nan nan nan nan nan nan nan nan nan nan nan nan nan nan nan nan nan nan nan nan nan nan nan nan nan nan nan nan nan nan nan nan nan nan nan nan 229 233 233 nan nan nan 238 240 nan nan nan nan nan nan nan nan nan nan nan nan nan nan nan nan nan nan nan nan
nan nan nan nan nan nan nan nan nan nan nan nan nan nan nan nan nan nan nan nan nan nan nan nan nan nan nan nan nan nan nan nan nan nan nan nan nan nan nan nan nan nan nan nan nan nan nan nan nan nan nan nan nan nan nan nan nan nan nan nan nan nan nan nan nan nan nan nan nan 220 228 231 232 nan nan nan nan nan nan nan nan nan nan nan nan nan nan nan nan nan nan nan nan nan nan nan nan
nan nan nan nan nan nan nan nan nan nan nan nan nan nan nan nan nan nan nan nan nan nan nan nan nan nan nan nan nan nan nan nan nan nan nan nan nan nan nan nan nan nan nan nan nan nan nan nan nan nan nan nan nan nan nan nan nan nan nan nan nan nan nan nan nan nan nan nan nan 212 222 225 228 nan nan 234 239 nan nan nan nan nan nan nan nan nan nan nan nan nan nan nan nan nan nan nan nan
nan nan nan nan nan nan nan nan nan nan nan nan nan nan nan nan nan nan nan nan nan nan nan nan nan nan nan nan nan nan nan nan nan nan nan nan nan nan nan nan nan nan nan nan nan nan nan nan nan nan nan nan nan nan nan nan nan nan nan nan nan nan nan nan nan nan nan nan nan nan nan 219 224 228 nan nan nan nan nan nan nan nan nan nan nan nan nan nan nan nan nan nan nan nan nan nan nan
nan nan nan nan nan nan nan nan nan nan nan nan nan nan nan nan nan nan nan nan nan nan nan nan nan nan nan nan nan nan nan nan nan nan nan nan nan nan nan nan nan nan nan nan nan nan nan nan nan nan nan nan nan nan nan nan nan nan nan nan nan nan nan nan nan nan nan nan nan nan nan nan 221 nan nan nan nan nan nan nan nan nan nan nan nan nan nan nan nan nan nan nan nan nan nan nan nan
nan nan nan nan nan nan nan nan nan nan nan nan nan nan nan nan nan nan nan nan nan nan nan nan nan nan nan nan nan nan nan nan nan nan nan nan nan nan nan nan nan nan nan nan nan nan nan nan nan nan nan nan nan nan nan nan nan nan nan nan nan nan nan nan nan nan nan nan nan nan nan nan nan 222 nan nan nan nan nan nan nan nan nan nan nan nan nan nan nan nan nan nan nan nan nan nan nan
nan nan nan nan nan nan nan nan nan nan nan nan nan nan nan nan nan nan nan nan nan nan nan nan nan nan nan nan nan nan nan nan nan nan nan nan nan nan nan nan nan nan nan nan nan nan nan nan nan nan nan nan nan nan nan nan nan nan nan nan nan nan nan nan nan nan nan nan nan nan nan nan nan nan nan nan nan nan nan nan nan nan nan nan nan nan nan nan nan nan nan nan nan nan nan nan nan
nan nan nan nan nan nan nan nan nan nan nan nan nan nan nan nan nan nan nan nan nan nan nan nan nan nan nan nan nan nan nan nan nan nan nan nan nan nan nan nan nan nan nan nan nan nan nan nan nan nan nan nan nan nan nan nan nan nan nan nan nan nan nan nan nan nan nan nan nan nan nan nan nan nan nan nan nan nan nan nan nan nan nan nan nan nan nan nan nan nan nan nan nan nan nan nan nan
nan nan nan nan nan nan nan nan nan nan nan nan nan nan nan nan nan nan nan nan nan nan nan nan nan nan nan nan nan nan nan nan nan nan nan nan nan nan nan nan nan nan nan nan nan nan nan nan nan nan nan nan nan nan nan nan nan nan nan nan nan nan nan nan nan nan nan nan nan nan nan nan nan nan nan nan nan nan nan nan nan nan nan nan 220 nan nan nan nan nan nan nan nan nan nan nan nan
nan nan nan nan nan nan nan nan nan nan nan nan nan nan nan nan nan nan nan nan nan nan nan nan nan nan nan nan nan nan nan nan nan nan nan nan nan nan nan nan nan nan nan nan nan nan nan nan nan nan nan nan nan nan nan nan nan nan nan nan nan nan nan nan nan nan nan nan nan nan nan nan nan nan nan nan nan nan nan nan nan nan nan nan nan nan nan nan nan nan nan nan nan nan nan nan nan
nan nan nan nan nan nan nan nan nan nan nan nan nan nan nan nan nan nan nan nan nan nan nan nan nan nan nan nan nan nan nan nan nan nan nan nan nan nan nan nan nan nan nan nan nan nan nan nan nan nan nan nan nan nan nan nan nan nan nan nan nan nan nan nan nan nan nan nan nan nan nan nan nan nan nan nan nan nan nan nan nan nan nan nan nan nan nan nan nan nan nan nan nan nan nan nan nan
nan nan nan nan nan nan nan nan nan nan nan nan nan nan nan nan nan nan nan nan nan nan nan nan nan nan nan nan nan nan nan nan nan nan nan nan nan nan nan nan nan nan nan nan nan nan nan nan nan nan nan nan nan nan nan nan nan nan nan nan nan nan nan nan nan nan nan nan nan nan nan nan nan nan nan nan nan nan nan nan nan nan nan nan nan nan nan nan nan nan nan nan nan nan nan nan nan
nan nan nan nan nan nan nan nan nan nan nan nan nan nan nan nan nan nan nan nan nan nan nan nan nan nan nan nan nan nan nan nan nan nan nan nan nan nan nan nan nan nan nan nan nan nan nan nan nan nan nan nan nan nan nan nan nan nan nan nan nan nan nan nan nan nan nan nan nan nan nan nan nan nan nan nan nan nan nan nan nan nan nan nan nan nan nan nan nan nan nan nan nan nan nan nan nan
nan nan nan nan nan nan nan nan nan nan nan nan nan nan nan nan nan nan nan nan nan nan nan nan nan nan nan nan nan nan nan nan nan nan nan nan nan nan nan nan nan nan nan nan nan nan nan nan nan nan nan nan nan nan nan nan nan nan nan nan nan nan nan nan nan nan nan nan nan nan nan nan nan nan nan nan nan nan nan nan nan nan nan nan nan nan nan nan nan nan nan nan nan nan nan nan nan